DECAYED

RESURS P1 DEB, 60223 (Decayed)

Orbit data source: Space-Track

RESURS P1 DEB, 60223 was space debris in LEO originally from a Commonwealth of Independent States-origin launch on Tue, 25 Jun 2013 UTC launched from the Tyuratam Missile And Space Complex (TTMTR). Debris objects in space refer to the collection of defunct objects orbiting the Earth. Examples of debris include non-operational satellites, rocket bodies, and fragments generated from explosions, collisions, or faulty payload assembly.

Not visible in the next 10 days
Identifier
60223, 2013-030M
Orbit
Decayed
Country
Flag of CISCIS
Related business
Manufacturer
TSSKBP?
Mission
Decayed spacecraft
Bus & Motor
Unknown
Mass
Unknown
Launch date (UTC)
2013-06-25 (12 years ago)
Launch vehicle
Unknown
Launch site
Tyuratam Missile And Space Complex (TTMTR)
Object type
Payload
Rocket body
Debris
Shape & HBR
Unknown
Radar Cross Section
Small (<0.1 m²)

Expand to show TLE details & history
Last TLE update: 1 year ago

TLE from 1 year ago
0 RESURS P1 DEB
1 60223U 13030M   24189.09312866  .16099175  22360-5  40309-2 0  9993
2 60223  96.9813 239.4544 0015966 273.1467  86.8001 16.28699779  1670
Epoch: 2024-07-07T02:14Z
TLE epoch observation values (Epoch: 2024-07-07T02:14:06.316Z)
Latitude
0.00002°
Longitude
-79.61805°
Altitude
198.715 km
Speed
7.787 km/s
True Right ascension
15h 57m 49s
True Declination
0° 00' 00"
Sunlit
Object was in full shadow at epoch
Visualization orbit readout
Latitude
Unknown
Longitude
Unknown
Altitude
Unknown
Speed
Unknown
Apparent Right ascension
Unknown
Apparent Declination
Unknown
Sunlit
N/A
Visualization observer readout
Local Sidereal Time
00:03:09
Azimuth
Unknown
Elevation
Unknown
Doppler factor
Unknown
Orbital elements
Apogee altitude
203.332 km
Perigee altitude
182.349 km
Semi-major axis
6,570.977 km
Eccentricity
0.0016
Inclination
96.9813°
RAAN
239.4544°
Arg. of periapsis
273.1467°
True anomaly
86.98279°
Mean anomaly
86.8001°
Eccentric anomaly
86.89144°
Mean motion
4.07472 °/min
Orbital period
88.35 mins
BSTAR
0.0040309
Loading maneuver chart data...
Computing Atmospheric mass density...

Documentation

Showing up to 5 results
|